period_start,C,m1,H,J0,J1,J2,J3,J4,J5,JA,JB,JC,JD,JJ,JK,JN,#
2013-10-24 00:00:56,0.08,0.56,0.00,24.67,26.15,28.91,5.94,29.75,1012.69,2051.00,3315.97,3156.02,3410.08,349.51,320.77,3.82,0000 0000 0000 0000 000000
2013-10-24 00:01:56,0.04,0.56,0.00,24.65,26.15,28.90,5.93,29.75,1012.62,2051.00,3315.67,3155.91,3410.00,351.12,321.43,3.83,0000 0000 0000 0000 000000
2013-10-24 00:02:57,0.07,0.56,0.00,24.65,26.15,28.86,5.88,29.71,1012.46,2051.00,3315.28,3155.45,3409.64,349.69,320.64,3.84,0000 0000 0000 0000 000000
2013-10-24 00:03:57,0.23,0.56,0.00,24.63,26.15,28.90,6.12,29.92,1012.49,2051.00,3315.10,3155.17,3409.26,350.52,321.68,3.84,0000 0000 0000 0000 000000
2013-10-24 00:04:57,0.11,0.56,0.00,24.60,26.15,28.89,5.86,29.67,1012.42,2051.00,3314.87,3155.06,3409.10,350.63,321.48,3.85,0000 0000 0000 0000 000000
2013-10-24 00:05:57,0.07,0.57,0.00,24.61,26.15,28.85,6.05,29.88,1012.38,2051.00,3314.38,3154.85,3408.90,350.30,321.04,3.85,0000 0000 0000 0000 000000
2013-10-24 00:06:58,0.16,0.57,0.00,24.64,26.15,28.89,5.84,29.79,1012.42,2051.00,3314.13,3154.36,3408.38,349.73,320.39,3.86,0000 0000 0000 0000 000000
2013-10-24 00:07:58,0.21,0.57,0.00,24.64,26.16,28.87,5.83,29.96,1012.37,2051.00,3314.01,3154.13,3408.13,349.29,320.45,3.86,0000 0000 0000 0000 000000
2013-10-24 00:08:58,0.08,0.57,0.00,24.65,26.17,28.91,5.98,30.00,1012.40,2051.00,3313.74,3154.05,3408.04,351.00,321.92,3.87,0000 0000 0000 0000 000000
2013-10-24 00:09:58,0.07,0.57,0.00,24.63,26.17,28.91,5.90,30.04,1012.36,2051.00,3313.34,3153.97,3407.82,351.34,322.07,3.88,0000 0000 0000 0000 000000
2013-10-24 00:10:59,0.09,0.57,0.00,24.64,26.17,28.91,5.82,29.71,1012.25,2051.00,3313.13,3153.81,3407.34,350.34,321.12,3.88,0000 0000 0000 0000 000000
2013-10-24 00:11:59,0.12,0.57,0.00,24.65,26.17,28.94,5.99,30.04,1012.23,2051.00,3313.01,3153.35,3407.12,350.84,321.56,3.89,0000 0000 0000 0000 000000
2013-10-24 00:12:59,0.15,0.57,0.00,24.66,26.17,28.96,5.97,29.75,1012.22,2051.00,3312.65,3153.13,3406.96,350.74,321.45,3.89,0000 0000 0000 0000 000000
2013-10-24 00:13:59,0.12,0.57,0.00,24.66,26.17,28.94,5.96,29.83,1012.22,2051.00,3312.26,3153.02,3406.51,350.23,320.97,3.90,0000 0000 0000 0000 000000
2013-10-24 00:15:00,0.13,0.57,0.00,24.67,26.17,28.93,5.93,29.67,1012.22,2051.00,3312.10,3152.89,3406.19,349.95,320.71,3.91,0000 0000 0000 0000 000000
2013-10-24 00:16:00,0.08,0.57,0.00,24.69,26.18,28.90,5.94,29.79,1012.22,2050.98,3312.02,3152.44,3406.06,350.53,321.22,3.91,0000 0000 0000 0000 000000
2013-10-24 00:17:00,0.11,0.57,0.00,24.70,26.19,28.97,5.84,29.75,1012.22,2050.99,3311.66,3152.16,3405.94,350.24,320.94,3.92,0000 0000 0000 0000 000000
2013-10-24 00:18:00,0.14,0.57,0.00,24.72,26.19,28.92,5.98,30.33,1012.22,2050.99,3311.28,3152.06,3405.49,350.32,321.00,3.92,0000 0000 0000 0000 000000
2013-10-24 00:19:00,0.13,0.57,0.00,24.72,26.20,28.98,5.91,29.92,1012.22,2050.99,3311.10,3152.01,3405.18,349.58,320.72,3.93,0000 0000 0000 0000 000000
2013-10-24 00:20:01,0.06,0.58,0.00,24.72,26.20,28.94,5.82,30.29,1012.22,2050.99,3311.01,3151.73,3405.04,349.25,320.01,3.93,0000 0000 0000 0000 000000
2013-10-24 00:21:01,0.09,0.58,0.00,24.69,26.20,28.94,5.87,30.46,1012.19,2050.99,3310.85,3151.29,3404.75,349.43,320.20,3.94,0000 0000 0000 0000 000000
2013-10-24 00:22:01,0.16,0.58,0.00,24.68,26.20,28.94,5.92,30.21,1012.15,2050.98,3310.41,3151.10,3404.31,350.57,321.25,3.95,0000 0000 0000 0000 000000
2013-10-24 00:23:01,0.15,0.58,0.00,24.69,26.20,28.95,5.90,30.13,1012.03,2050.96,3310.15,3151.03,3404.11,349.75,320.74,3.95,0000 0000 0000 0000 000000
2013-10-24 00:24:01,0.05,0.58,0.00,24.68,26.20,28.90,5.93,30.33,1011.89,2050.97,3310.04,3150.96,3404.02,349.71,320.39,3.96,0000 0000 0000 0000 000000
2013-10-24 00:25:02,0.04,0.58,0.00,24.69,26.20,28.98,5.99,30.13,1011.77,2050.98,3309.92,3150.59,3403.65,350.42,320.98,3.96,0000 0000 0000 0000 000000
2013-10-24 00:26:02,0.18,0.58,0.00,24.69,26.21,28.93,6.00,30.04,1011.79,2050.99,3309.57,3150.22,3403.25,350.66,321.32,3.97,0000 0000 0000 0000 000000
2013-10-24 00:27:02,0.18,0.58,0.00,24.69,26.22,28.94,5.97,29.88,1011.74,2050.99,3309.21,3150.08,3403.09,352.07,322.48,3.98,0000 0000 0000 0000 000000
2013-10-24 00:28:02,0.09,0.58,0.00,24.70,26.22,28.97,5.85,30.13,1011.73,2050.98,3309.07,3150.01,3402.92,350.26,320.61,3.98,0000 0000 0000 0000 000000
2013-10-24 00:29:03,0.04,0.58,0.00,24.69,26.22,28.99,5.93,30.29,1011.73,2050.98,3308.96,3149.85,3402.45,350.25,320.96,3.99,0000 0000 0000 0000 000000
2013-10-24 00:30:03,0.10,0.58,0.00,24.71,26.22,28.99,5.97,30.08,1011.73,2050.97,3308.46,3149.37,3402.18,350.37,320.90,3.99,0000 0000 0000 0000 000000
2013-10-24 00:31:03,0.23,0.58,0.00,24.70,26.22,29.02,5.91,30.25,1011.73,2050.97,3308.16,3149.14,3402.03,348.81,319.48,4.00,0000 0000 0000 0000 000000
2013-10-24 00:32:03,0.10,0.58,0.00,24.70,26.22,28.98,5.91,30.17,1011.73,2050.99,3308.06,3149.05,3401.68,349.45,320.00,4.00,0000 0000 0000 0000 000000
2013-10-24 00:33:04,0.09,0.58,0.00,24.70,26.22,28.98,5.80,30.25,1011.73,2050.97,3307.95,3148.91,3401.27,350.13,320.69,4.01,0000 0000 0000 0000 000000
2013-10-24 00:34:04,0.08,0.58,0.00,24.73,26.24,28.97,6.02,30.29,1011.70,2050.94,3307.62,3148.50,3401.10,350.30,320.81,4.02,0000 0000 0000 0000 000000
2013-10-24 00:35:04,0.14,0.59,0.00,24.72,26.25,28.95,6.04,30.17,1011.68,2050.97,3307.28,3148.19,3401.00,350.97,321.41,4.02,0000 0000 0000 0000 000000
2013-10-24 00:36:04,0.18,0.59,0.00,24.72,26.25,28.97,5.92,30.00,1011.68,2050.98,3306.78,3147.69,3400.51,348.87,319.50,4.03,0000 0000 0000 0000 000000
2013-10-24 00:37:04,0.27,0.59,0.00,24.68,26.25,28.99,6.02,30.33,1011.67,2050.97,3306.30,3147.25,3399.72,350.43,320.96,4.03,0000 0000 0000 0000 000000
2013-10-24 00:38:05,0.24,0.59,0.00,24.68,26.25,29.02,5.94,30.33,1011.68,2050.97,3306.11,3147.08,3399.27,350.31,320.87,4.04,0000 0000 0000 0000 000000
2013-10-24 00:39:05,0.10,0.59,0.00,24.69,26.25,29.00,5.76,30.38,1011.70,2050.94,3305.93,3146.69,3399.08,349.27,319.91,4.05,0000 0000 0000 0000 000000
2013-10-24 00:40:05,0.12,0.59,0.00,24.70,26.25,29.00,5.90,30.21,1011.60,2050.91,3305.50,3146.29,3398.82,351.60,321.99,4.05,0000 0000 0000 0000 000000
2013-10-24 00:41:06,0.14,0.59,0.00,24.69,26.25,29.00,6.03,30.38,1011.45,2050.89,3305.19,3146.11,3398.35,350.57,321.01,4.06,0000 0000 0000 0000 000000
2013-10-24 00:42:06,0.10,0.59,0.00,24.68,26.25,29.00,5.84,30.33,1011.40,2050.80,3305.04,3146.02,3398.13,349.56,320.09,4.06,0000 0000 0000 0000 000000
2013-10-24 00:43:06,0.01,0.59,0.00,24.68,26.26,29.03,6.07,30.67,1011.32,2050.70,3304.83,3145.74,3397.99,350.92,321.31,4.07,0000 0000 0000 0000 000000
2013-10-24 00:44:07,0.04,0.59,0.00,24.70,26.27,28.98,5.97,30.33,1011.26,2050.46,3304.42,3145.34,3397.52,350.66,321.03,4.07,0000 0000 0000 0000 000000
2013-10-24 00:45:07,0.03,0.59,0.00,24.72,26.27,29.02,6.02,30.38,1011.25,2050.46,3304.16,3145.13,3397.23,350.28,320.64,4.08,0000 0000 0000 0000 000000
2013-10-24 00:46:07,0.12,0.59,0.00,24.71,26.27,28.98,5.85,30.25,1011.25,2050.38,3304.05,3145.05,3397.09,349.73,320.38,4.09,0000 0000 0000 0000 000000
2013-10-24 00:47:07,-0.05,0.59,0.00,24.71,26.27,29.02,5.89,30.25,1011.25,2050.25,3304.00,3144.99,3397.03,348.88,319.77,4.09,0000 0000 0000 0000 000000
2013-10-24 00:48:08,-0.07,0.59,0.00,24.76,26.27,29.04,5.94,30.46,1011.25,2050.25,3303.94,3144.94,3396.94,350.10,320.81,4.10,0000 0000 0000 0000 000000
2013-10-24 00:49:08,0.04,0.59,0.00,24.75,26.28,28.99,5.92,30.33,1011.24,2050.28,3303.60,3144.71,3396.60,349.85,320.40,4.10,0000 0000 0000 0000 000000
2013-10-24 00:50:08,0.18,0.59,0.00,24.72,26.30,29.01,5.95,30.42,1011.25,2050.24,3303.22,3144.29,3396.23,349.96,320.78,4.11,0000 0000 0000 0000 000000
2013-10-24 00:51:08,0.15,0.60,0.00,24.71,26.30,29.01,6.00,30.83,1011.25,2050.25,3303.08,3144.10,3396.07,350.79,320.68,4.12,0000 0000 0000 0000 000000
2013-10-24 00:52:08,0.09,0.60,0.00,24.71,26.30,29.03,5.87,30.38,1011.26,2050.27,3302.98,3143.87,3395.65,349.66,320.00,4.12,0000 0000 0000 0000 000000
2013-10-24 00:53:09,0.11,0.60,0.00,24.71,26.31,28.98,5.96,30.25,1011.26,2050.17,3302.63,3143.44,3395.25,350.14,320.54,4.13,0000 0000 0000 0000 000000
2013-10-24 00:54:09,0.12,0.60,0.00,24.68,26.32,29.03,5.90,30.42,1011.26,2050.13,3302.25,3143.18,3395.08,350.19,320.62,4.13,0000 0000 0000 0000 000000
2013-10-24 00:55:09,0.11,0.60,0.00,24.66,26.32,29.01,5.89,30.21,1011.25,2050.12,3302.09,3143.05,3395.01,350.00,320.46,4.14,0000 0000 0000 0000 000000
2013-10-24 00:56:09,0.04,0.60,0.00,24.67,26.33,29.03,5.88,30.21,1011.26,2050.07,3302.03,3142.99,3394.82,349.36,319.87,4.15,0000 0000 0000 0000 000000
2013-10-24 00:57:10,0.01,0.60,0.00,24.67,26.34,28.95,5.87,30.21,1011.27,2050.03,3301.74,3142.87,3394.40,349.66,320.14,4.15,0000 0000 0000 0000 000000
2013-10-24 00:58:10,0.09,0.60,0.00,24.67,26.35,28.97,6.10,30.21,1011.26,2050.02,3301.34,3142.43,3394.16,350.80,321.18,4.16,0000 0000 0000 0000 000000
2013-10-24 00:59:10,0.18,0.60,0.00,24.66,26.35,28.99,5.99,30.21,1011.25,2050.02,3301.12,3142.17,3394.06,349.86,320.48,4.16,0000 0000 0000 0000 000000
2013-10-24 01:00:11,0.09,0.60,0.00,24.69,26.36,29.05,6.00,30.17,1011.28,2050.02,3301.02,3142.06,3393.96,350.23,320.64,4.17,0000 0000 0000 0000 000000
2013-10-24 01:01:11,0.05,0.60,0.00,24.69,26.37,29.02,5.88,30.29,1011.27,2050.02,3300.84,3142.01,3393.63,350.13,320.56,4.17,0000 0000 0000 0000 000000
2013-10-24 01:02:11,0.09,0.60,0.00,24.72,26.37,29.03,5.80,30.17,1011.30,2050.01,3300.37,3141.90,3393.28,349.81,319.94,4.18,0000 0000 0000 0000 000000
2013-10-24 01:03:11,0.13,0.60,0.00,24.70,26.37,29.06,5.94,30.04,1011.42,2050.01,3300.13,3141.52,3393.10,350.40,321.18,4.19,0000 0000 0000 0000 000000
2013-10-24 01:04:12,0.14,0.60,0.00,24.71,26.37,29.06,5.86,30.08,1011.57,2050.01,3300.02,3141.20,3393.03,350.04,320.54,4.19,0000 0000 0000 0000 000000
2013-10-24 01:05:12,0.11,0.60,0.00,24.73,26.37,29.01,5.91,30.04,1011.67,2050.02,3299.77,3141.07,3392.74,349.84,320.37,4.20,0000 0000 0000 0000 000000
2013-10-24 01:06:12,0.09,0.60,0.00,24.72,26.37,29.07,5.76,30.17,1011.69,2050.03,3299.32,3141.02,3392.37,349.44,320.27,4.20,0000 0000 0000 0000 000000
2013-10-24 01:07:12,0.14,0.60,0.00,24.69,26.38,29.04,5.97,29.96,1011.63,2050.03,3299.12,3140.91,3392.14,350.18,320.71,4.21,0000 0000 0000 0000 000000
2013-10-24 01:08:13,0.07,0.61,0.00,24.70,26.39,29.05,5.82,29.58,1011.70,2050.02,3298.98,3140.47,3392.04,349.24,319.54,4.22,0000 0000 0000 0000 000000
2013-10-24 01:09:13,0.12,0.61,0.00,24.70,26.40,29.09,5.78,30.04,1011.73,2050.01,3298.52,3140.17,3391.82,349.91,320.48,4.22,0000 0000 0000 0000 000000
2013-10-24 01:10:13,0.15,0.61,0.00,24.70,26.40,29.01,6.08,30.13,1011.72,2050.01,3298.20,3140.06,3391.33,350.51,320.98,4.23,0000 0000 0000 0000 000000
2013-10-24 01:11:13,0.13,0.61,0.00,24.70,26.40,29.05,5.93,30.00,1011.73,2050.01,3298.07,3139.89,3391.12,349.44,320.58,4.23,0000 0000 0000 0000 000000
2013-10-24 01:12:14,0.08,0.61,0.00,24.69,26.40,29.08,5.83,30.00,1011.72,2050.01,3297.92,3139.43,3391.04,349.84,320.42,4.24,0000 0000 0000 0000 000000
2013-10-24 01:13:14,0.14,0.61,0.00,24.68,26.40,29.01,5.92,29.92,1011.66,2050.00,3297.51,3139.16,3390.87,350.11,320.67,4.24,0000 0000 0000 0000 000000
2013-10-24 01:14:14,0.13,0.61,0.00,24.69,26.40,29.01,6.01,30.21,1011.69,2050.00,3297.21,3139.06,3390.43,350.37,320.91,4.25,0000 0000 0000 0000 000000
2013-10-24 01:15:15,0.10,0.61,0.00,24.70,26.40,29.10,5.82,30.08,1011.70,2050.00,3297.07,3139.00,3390.16,349.78,320.36,4.26,0000 0000 0000 0000 000000
2013-10-24 01:16:15,0.07,0.61,0.00,24.71,26.40,29.08,5.82,30.08,1011.70,2050.00,3296.88,3138.74,3390.04,349.09,319.72,4.26,0000 0000 0000 0000 000000
2013-10-24 01:17:15,0.12,0.61,0.00,24.72,26.40,29.12,5.75,29.92,1011.67,2050.00,3296.40,3138.30,3389.72,349.38,319.97,4.27,0000 0000 0000 0000 000000
2013-10-24 01:18:15,0.20,0.61,0.00,24.71,26.40,29.11,5.84,30.04,1011.71,2050.00,3296.15,3138.10,3389.29,350.54,321.32,4.27,0000 0000 0000 0000 000000
2013-10-24 01:19:16,0.12,0.61,0.00,24.72,26.40,29.05,5.81,29.88,1011.73,2050.00,3296.04,3138.03,3389.10,349.39,320.19,4.28,0000 0000 0000 0000 000000
2013-10-24 01:20:16,0.05,0.61,0.00,24.77,26.41,29.03,6.05,30.25,1011.72,2050.00,3295.96,3137.96,3389.02,350.80,321.23,4.29,0000 0000 0000 0000 000000
2013-10-24 01:21:16,0.07,0.61,0.00,24.77,26.41,29.04,6.02,29.92,1011.73,2050.00,3295.52,3137.57,3388.82,350.25,320.77,4.29,0000 0000 0000 0000 000000
2013-10-24 01:22:16,0.16,0.62,0.00,24.78,26.42,29.08,5.88,29.92,1011.73,2050.00,3295.23,3137.25,3388.43,350.71,321.07,4.30,0000 0000 0000 0000 000000
2013-10-24 01:23:17,0.15,0.62,0.00,24.81,26.42,29.04,5.77,29.96,1011.73,2050.00,3295.07,3137.09,3388.16,349.81,320.43,4.30,0000 0000 0000 0000 000000
2013-10-24 01:24:17,0.08,0.62,0.00,24.80,26.42,29.09,5.75,29.92,1011.73,2050.00,3294.93,3137.03,3388.05,349.79,320.51,4.31,0000 0000 0000 0000 000000
2013-10-24 01:25:17,0.04,0.62,0.00,24.79,26.42,29.14,5.94,30.08,1011.73,2050.00,3294.59,3136.99,3388.00,350.09,320.83,4.32,0000 0000 0000 0000 000000
2013-10-24 01:26:17,0.07,0.62,0.00,24.77,26.42,29.05,5.86,29.96,1011.73,2050.00,3294.25,3136.67,3387.67,350.09,320.82,4.32,0000 0000 0000 0000 000000
2013-10-24 01:27:18,0.16,0.62,0.00,24.77,26.42,29.12,5.88,29.92,1011.72,2050.00,3294.08,3136.28,3387.25,350.07,320.59,4.33,0000 0000 0000 0000 000000
2013-10-24 01:28:18,0.15,0.62,0.00,24.76,26.42,29.08,5.81,29.96,1011.73,2050.00,3293.99,3136.11,3387.07,349.99,320.22,4.33,0000 0000 0000 0000 000000
2013-10-24 01:29:18,0.07,0.62,0.00,24.75,26.42,29.13,5.85,30.04,1011.73,2050.00,3293.72,3136.04,3386.98,350.18,320.59,4.34,0000 0000 0000 0000 000000
2013-10-24 01:30:18,0.07,0.62,0.00,24.73,26.42,29.07,5.83,29.46,1011.73,2050.00,3293.44,3136.00,3386.72,350.20,320.88,4.34,0000 0000 0000 0000 000000
2013-10-24 01:31:19,0.10,0.62,0.00,24.74,26.42,29.11,5.99,30.04,1011.73,2050.00,3293.16,3135.70,3386.31,350.56,321.04,4.35,0000 0000 0000 0000 000000
2013-10-24 01:32:19,0.15,0.62,0.00,24.75,26.43,29.12,5.88,29.79,1011.73,2050.00,3293.04,3135.30,3386.11,350.63,321.09,4.36,0000 0000 0000 0000 000000
2013-10-24 01:33:19,0.13,0.62,0.00,24.77,26.43,29.02,5.93,30.04,1011.73,2050.00,3292.71,3135.11,3385.99,349.12,320.23,4.36,0000 0000 0000 0000 000000
2013-10-24 01:34:20,0.10,0.62,0.00,24.77,26.43,29.09,5.95,30.25,1011.73,2050.00,3292.27,3135.04,3385.62,350.02,320.52,4.37,0000 0000 0000 0000 000000
2013-10-24 01:35:20,0.11,0.62,0.00,24.77,26.44,29.20,5.89,29.88,1011.73,2050.00,3292.10,3135.00,3385.24,350.37,320.83,4.37,0000 0000 0000 0000 000000
2013-10-24 01:36:20,0.08,0.62,0.00,24.78,26.45,29.11,5.92,29.71,1011.73,2050.00,3292.03,3134.81,3385.08,349.62,319.93,4.38,0000 0000 0000 0000 000000
2013-10-24 01:37:21,0.07,0.62,0.00,24.80,26.45,29.11,5.86,30.04,1011.73,2050.00,3291.84,3134.37,3384.97,349.60,320.10,4.39,0000 0000 0000 0000 000000
2013-10-24 01:38:21,0.15,0.63,0.00,24.82,26.45,29.17,5.76,30.04,1011.73,2050.00,3291.37,3134.13,3384.55,349.74,320.21,4.39,0000 0000 0000 0000 000000
2013-10-24 01:39:21,0.16,0.63,0.00,24.83,26.45,29.15,5.92,29.83,1011.73,2050.00,3291.13,3134.05,3384.21,350.76,321.30,4.40,0000 0000 0000 0000 000000
2013-10-24 01:40:22,0.09,0.63,0.00,24.84,26.45,29.12,5.96,29.63,1011.73,2050.00,3290.99,3133.83,3384.06,351.00,320.98,4.40,0000 0000 0000 0000 000000
2013-10-24 01:41:22,0.08,0.63,0.00,24.86,26.45,29.16,5.74,29.88,1011.74,2049.99,3290.70,3133.42,3383.84,349.05,319.54,4.41,0000 0000 0000 0000 000000
2013-10-24 01:42:22,0.16,0.63,0.00,24.86,26.45,29.11,5.73,30.13,1011.73,2049.97,3290.27,3133.15,3383.38,350.18,320.92,4.41,0000 0000 0000 0000 000000
2013-10-24 01:43:23,0.16,0.63,0.00,24.85,26.45,29.18,6.01,30.17,1011.73,2049.97,3290.08,3133.05,3383.15,350.78,321.12,4.42,0000 0000 0000 0000 000000
2013-10-24 01:44:23,0.08,0.63,0.00,24.81,26.45,29.15,5.98,30.17,1011.73,2049.97,3289.89,3132.85,3383.00,350.47,320.55,4.43,0000 0000 0000 0000 000000
2013-10-24 01:45:23,0.10,0.63,0.00,24.80,26.45,29.16,5.88,29.79,1011.73,2049.97,3289.42,3132.41,3382.56,349.80,320.20,4.43,0000 0000 0000 0000 000000
2013-10-24 01:46:23,0.20,0.63,0.00,24.82,26.45,29.14,5.87,30.04,1011.73,2049.98,3289.16,3132.17,3382.23,348.78,319.58,4.44,0000 0000 0000 0000 000000
2013-10-24 01:47:24,0.13,0.63,0.00,24.81,26.45,29.15,5.67,30.17,1011.73,2049.98,3289.05,3132.07,3382.08,349.06,319.59,4.44,0000 0000 0000 0000 000000
2013-10-24 01:48:24,0.06,0.63,0.00,24.80,26.46,29.11,5.78,30.13,1011.73,2049.99,3288.81,3132.00,3381.90,349.31,319.82,4.45,0000 0000 0000 0000 000000
2013-10-24 01:49:24,0.11,0.63,0.00,24.80,26.46,29.09,5.93,29.79,1011.73,2049.97,3288.35,3131.59,3381.40,350.43,320.94,4.46,0000 0000 0000 0000 000000
2013-10-24 01:50:25,0.19,0.64,0.00,24.80,26.47,29.16,5.92,30.13,1011.73,2049.99,3288.12,3131.24,3381.14,350.47,320.90,4.46,0000 0000 0000 0000 000000
2013-10-24 01:51:25,0.13,0.64,0.00,24.84,26.47,29.17,5.90,30.13,1011.73,2049.98,3288.01,3131.08,3381.04,349.63,320.08,4.47,0000 0000 0000 0000 000000
2013-10-24 01:52:25,0.07,0.64,0.00,24.85,26.47,29.16,5.86,29.79,1011.73,2049.99,3287.61,3131.01,3380.73,350.53,320.51,4.47,0000 0000 0000 0000 000000
2013-10-24 01:53:25,0.13,0.64,0.00,24.87,26.47,29.19,5.83,29.88,1011.73,2049.97,3287.24,3130.67,3380.28,349.58,320.64,4.48,0000 0000 0000 0000 000000
2013-10-24 01:54:26,0.16,0.64,0.00,24.87,26.47,29.11,6.00,29.96,1011.73,2049.96,3287.08,3130.28,3380.10,349.93,320.33,4.49,0000 0000 0000 0000 000000
2013-10-24 01:55:26,0.13,0.64,0.00,24.87,26.47,29.14,5.92,29.92,1011.73,2049.96,3286.86,3130.10,3379.96,350.40,320.75,4.49,0000 0000 0000 0000 000000
2013-10-24 01:56:26,0.12,0.64,0.00,24.86,26.47,29.15,5.71,30.13,1011.73,2049.97,3286.39,3130.02,3379.50,348.78,319.51,4.50,0000 0000 0000 0000 000000
2013-10-24 01:57:26,0.13,0.64,0.00,24.86,26.47,29.20,5.92,30.33,1011.73,2049.96,3286.15,3129.81,3379.18,350.61,320.95,4.50,0000 0000 0000 0000 000000
2013-10-24 01:58:27,0.11,0.64,0.00,24.87,26.47,29.17,5.90,29.92,1011.71,2049.91,3286.02,3129.40,3379.06,349.66,320.42,4.51,0000 0000 0000 0000 000000
2013-10-24 01:59:27,0.09,0.64,0.00,24.87,26.47,29.12,5.90,30.08,1011.71,2049.91,3285.77,3129.15,3378.89,349.89,320.61,4.51,0000 0000 0000 0000 000000
2013-10-24 02:00:27,0.11,0.64,0.00,24.86,26.47,29.22,5.86,29.96,1011.71,2049.91,3285.36,3129.04,3378.42,350.32,320.83,4.52,0000 0000 0000 0000 000000
2013-10-24 02:01:28,0.13,0.64,0.00,24.86,26.48,29.14,6.04,30.08,1011.69,2049.91,3285.13,3128.95,3378.15,351.23,321.19,4.53,0000 0000 0000 0000 000000
2013-10-24 02:02:28,0.10,0.64,0.00,24.85,26.48,29.14,5.85,30.00,1011.63,2049.93,3285.00,3128.57,3378.05,350.28,320.63,4.53,0000 0000 0000 0000 000000
2013-10-24 02:03:28,0.11,0.64,0.00,24.85,26.49,29.22,5.73,30.13,1011.53,2049.89,3284.61,3128.24,3377.79,350.59,320.58,4.54,0000 0000 0000 0000 000000
2013-10-24 02:04:29,0.16,0.64,0.00,24.84,26.49,29.15,5.97,30.08,1011.37,2049.91,3284.21,3128.08,3377.31,350.68,320.92,4.54,0000 0000 0000 0000 000000
2013-10-24 02:05:29,0.13,0.65,0.00,24.84,26.50,29.17,5.87,29.75,1011.38,2049.92,3284.08,3127.99,3377.11,350.35,320.62,4.55,0000 0000 0000 0000 000000
2013-10-24 02:06:29,0.06,0.65,0.00,24.84,26.50,29.22,5.85,29.79,1011.31,2049.87,3283.97,3127.72,3377.01,349.53,319.70,4.56,0000 0000 0000 0000 000000
2013-10-24 02:07:30,0.10,0.65,0.00,24.87,26.50,29.14,5.98,29.83,1011.28,2049.82,3283.49,3127.30,3376.55,350.36,320.58,4.56,0000 0000 0000 0000 000000
2013-10-24 02:08:30,0.18,0.65,0.00,24.89,26.50,29.15,5.89,29.96,1011.27,2049.87,3283.18,3127.11,3376.20,350.01,320.23,4.57,0000 0000 0000 0000 000000
2013-10-24 02:09:30,0.16,0.65,0.00,24.88,26.50,29.11,5.77,30.00,1011.25,2049.92,3283.07,3127.03,3376.07,350.36,320.56,4.57,0000 0000 0000 0000 000000
2013-10-24 02:10:31,0.07,0.65,0.00,24.89,26.50,29.19,5.81,30.04,1011.25,2049.85,3283.00,3126.88,3375.97,349.29,319.39,4.58,0000 0000 0000 0000 000000
2013-10-24 02:11:31,0.05,0.65,0.00,24.89,26.50,29.24,5.90,30.13,1011.25,2049.81,3282.71,3126.49,3375.54,350.31,320.50,4.58,0000 0000 0000 0000 000000
2013-10-24 02:12:31,0.12,0.65,0.00,24.92,26.50,29.20,5.83,30.17,1011.25,2049.70,3282.26,3126.19,3375.19,349.69,319.90,4.59,0000 0000 0000 0000 000000
2013-10-24 02:13:31,0.09,0.65,0.00,24.92,26.50,29.20,5.88,29.92,1011.20,2049.71,3282.09,3126.06,3375.07,349.49,319.97,4.60,0000 0000 0000 0000 000000
2013-10-24 02:14:32,0.03,0.65,0.00,24.92,26.50,29.19,5.93,29.71,1011.09,2049.62,3281.84,3125.86,3374.79,350.07,320.19,4.60,0000 0000 0000 0000 000000
2013-10-24 02:15:32,0.10,0.65,0.00,24.95,26.51,29.16,5.80,30.08,1011.05,2049.57,3281.45,3125.49,3374.33,349.70,319.82,4.61,0000 0000 0000 0000 000000
2013-10-24 02:16:32,0.13,0.65,0.00,24.94,26.52,29.16,5.89,30.00,1010.90,2049.46,3281.18,3125.19,3374.12,349.56,319.80,4.61,0000 0000 0000 0000 000000
2013-10-24 02:17:33,0.08,0.65,0.00,24.92,26.52,29.22,5.82,30.21,1010.79,2049.56,3281.06,3125.07,3374.02,349.43,319.51,4.62,0000 0000 0000 0000 000000
2013-10-24 02:18:33,0.04,0.65,0.00,24.94,26.52,29.21,5.85,30.08,1010.77,2049.40,3280.80,3125.00,3373.66,349.55,319.19,4.63,0000 0000 0000 0000 000000
2013-10-24 02:19:33,0.07,0.65,0.00,24.92,26.52,29.21,5.95,30.25,1010.78,2049.33,3280.32,3124.58,3373.27,349.11,319.29,4.63,0000 0000 0000 0000 000000
2013-10-24 02:20:34,0.14,0.65,0.00,24.91,26.52,29.24,5.88,30.25,1010.76,2049.28,3280.11,3124.24,3373.09,350.29,320.30,4.64,0000 0000 0000 0000 000000
2013-10-24 02:21:34,0.10,0.66,0.00,24.92,26.52,29.19,5.97,30.25,1010.76,2049.26,3280.02,3124.09,3372.86,350.05,320.07,4.64,0000 0000 0000 0000 000000
2013-10-24 02:22:34,0.06,0.66,0.00,24.94,26.52,29.25,5.98,30.29,1010.76,2049.18,3279.75,3123.99,3372.38,350.00,320.00,4.65,0000 0000 0000 0000 000000
2013-10-24 02:23:35,0.07,0.66,0.00,24.96,26.52,29.23,5.78,29.96,1010.76,2049.18,3279.36,3123.75,3372.14,349.54,319.56,4.66,0000 0000 0000 0000 000000
2013-10-24 02:24:35,0.14,0.66,0.00,24.93,26.52,29.25,5.83,30.25,1010.75,2049.15,3279.13,3123.31,3372.04,349.92,319.94,4.66,0000 0000 0000 0000 000000
2013-10-24 02:25:35,0.10,0.66,0.00,24.94,26.53,29.21,5.99,30.21,1010.70,2049.16,3279.01,3123.11,3371.78,351.07,320.96,4.67,0000 0000 0000 0000 000000
2013-10-24 02:26:35,0.09,0.66,0.00,24.95,26.53,29.16,5.88,30.25,1010.59,2049.11,3278.60,3123.03,3371.34,349.47,319.37,4.67,0000 0000 0000 0000 000000
2013-10-24 02:27:35,0.11,0.66,0.00,24.97,26.54,29.19,6.01,30.25,1010.59,2049.15,3278.24,3122.92,3371.12,350.32,320.21,4.68,0000 0000 0000 0000 000000
2013-10-24 02:28:36,0.15,0.66,0.00,24.96,26.54,29.27,5.87,30.42,1010.37,2049.14,3278.08,3122.48,3371.00,350.15,319.71,4.68,0000 0000 0000 0000 000000
2013-10-24 02:29:36,0.12,0.66,0.00,24.97,26.55,29.24,5.90,30.25,1010.35,2049.14,3277.98,3122.20,3370.65,349.77,319.64,4.69,0000 0000 0000 0000 000000
2013-10-24 02:30:36,0.12,0.66,0.00,24.98,26.55,29.27,5.97,30.25,1010.31,2049.14,3277.61,3122.06,3370.27,350.17,319.72,4.70,0000 0000 0000 0000 000000
2013-10-24 02:31:36,0.13,0.66,0.00,24.97,26.55,29.25,6.16,30.00,1010.29,2049.17,3277.24,3122.00,3370.10,350.20,319.69,4.70,0000 0000 0000 0000 000000
2013-10-24 02:32:37,0.08,0.66,0.00,24.97,26.55,29.25,5.98,29.83,1010.27,2049.19,3277.08,3121.74,3370.01,350.87,320.62,4.71,0000 0000 0000 0000 000000
2013-10-24 02:33:37,0.11,0.66,0.00,24.95,26.55,29.27,5.87,30.17,1010.27,2049.17,3276.95,3121.33,3369.62,349.79,319.35,4.71,0000 0000 0000 0000 000000
2013-10-24 02:34:37,0.17,0.66,0.00,24.95,26.55,29.21,5.72,30.21,1010.27,2049.13,3276.51,3121.12,3369.24,350.28,320.10,4.72,0000 0000 0000 0000 000000
2013-10-24 02:35:38,0.10,0.66,0.00,24.96,26.55,29.25,5.88,29.58,1010.27,2049.06,3276.18,3121.01,3369.07,350.50,320.39,4.73,0000 0000 0000 0000 000000
2013-10-24 02:36:38,0.04,0.66,0.00,24.94,26.55,29.25,5.79,29.63,1010.27,2049.06,3276.05,3120.80,3368.89,350.19,319.94,4.73,0000 0000 0000 0000 000000
2013-10-24 02:37:38,0.12,0.67,0.00,24.94,26.56,29.28,5.80,30.04,1010.28,2049.08,3275.63,3120.32,3368.40,349.82,319.96,4.74,0000 0000 0000 0000 000000